Weather History for KAVK - March, 2013

Change the Weather History Date:

Thursday, March 7, 2013

  Actual Average Record
Temperature  
Mean Temperature 48 °F -  
Max Temperature 64 °F 61 °F 80 °F (1950)
Min Temperature 32 °F 33 °F 10 °F (1948)
Degree Days  
Heating Degree Days 17    
Moisture  
Dew Point 31 °F    
Average Humidity 58    
Maximum Humidity 80    
Minimum Humidity 34    
Precipitation  
Precipitation 0.00 in - - ()
Sea Level Pressure  
Sea Level Pressure 30.02 in    
Wind  
Wind Speed 12 mph (SSE)    
Max Wind Speed 22 mph    
Max Gust Speed 28 mph    
Visibility 10 miles    
Events      
Averages and records for this station are not official NWS values.
T = Trace of Precipitation, MM = Missing Value Source: NWS Daily Summary

Daily Weather History Graph

Daily Weather History Graph

Search for Another Location

Airport or City:

Trip Planner

Search our weather history database for the weather conditions in past years. The results will help you decide how hot, cold, wet, or windy it might be!

Date:

Astronomy

Mar. 07, 2013 Rise Set
Actual Time 6:56 AM CST 6:35 PM CST
Civil Twilight 6:30 AM CST 7:00 PM CST
Nautical Twilight 6:00 AM CST 7:30 PM CST
Astronomical Twilight 5:30 AM CST 8:00 PM CST
Moon 3:52 AM CST (3/7) 2:29 PM CST (3/7)
Length of Visible Light 12h 30m
Length of Day
11h 38m
Waning Crescent, 20% of the Moon is Illuminated
Mar 7
Waning Crescent
Mar 11
New
Mar 19
First Quarter
Mar 27
Full
Apr 2
Last Quarter

Hourly Weather History & Observations

Time (CST) Temp. Windchill Dew Point Humidity Pressure Visibility Wind Dir Wind Speed Gust Speed Precip Events Conditions
12:10 AM 33.8 °F 25.8 °F 26.6 °F 75% 30.12 in 10.0 mi SE 10.4 mph - N/A   Overcast
12:30 AM 32.0 °F 23.6 °F 26.6 °F 80% 30.11 in 10.0 mi SE 10.4 mph - N/A   Overcast
1:10 AM 32.0 °F 24.2 °F 24.8 °F 75% 30.11 in 10.0 mi SE 9.2 mph - N/A   Overcast
1:30 AM 32.0 °F 24.8 °F 24.8 °F 75% 30.11 in 10.0 mi ESE 8.1 mph - N/A   Overcast
1:50 AM 32.0 °F 24.8 °F 24.8 °F 75% 30.12 in 10.0 mi ESE 8.1 mph - N/A   Mostly Cloudy
2:10 AM 32.0 °F 24.8 °F 24.8 °F 75% 30.12 in 10.0 mi ESE 8.1 mph - N/A   Mostly Cloudy
2:30 AM 32.0 °F 24.8 °F 24.8 °F 75% 30.11 in 10.0 mi ESE 8.1 mph - N/A   Mostly Cloudy
2:50 AM 32.0 °F 24.8 °F 24.8 °F 75% 30.10 in 10.0 mi ESE 8.1 mph - N/A   Mostly Cloudy
3:10 AM 32.0 °F 23.6 °F 24.8 °F 75% 30.09 in 10.0 mi SE 10.4 mph - N/A   Mostly Cloudy
3:30 AM 32.0 °F 24.2 °F 26.6 °F 80% 30.07 in 10.0 mi SE 9.2 mph - N/A   Mostly Cloudy
3:50 AM 32.0 °F 24.2 °F 24.8 °F 75% 30.07 in 10.0 mi ESE 9.2 mph - N/A   Scattered Clouds
4:10 AM 32.0 °F 23.0 °F 24.8 °F 75% 30.06 in 10.0 mi SE 11.5 mph - N/A   Partly Cloudy
4:30 AM 32.0 °F 23.0 °F 24.8 °F 75% 30.05 in 10.0 mi SE 11.5 mph - N/A   Clear
4:50 AM 32.0 °F 24.8 °F 24.8 °F 75% 30.06 in 10.0 mi SE 8.1 mph - N/A   Clear
5:10 AM 32.0 °F 24.2 °F 24.8 °F 75% 30.05 in 10.0 mi SE 9.2 mph - N/A   Clear
5:30 AM 32.0 °F 24.8 °F 24.8 °F 75% 30.05 in 10.0 mi SE 8.1 mph - N/A   Clear
5:50 AM 32.0 °F 23.0 °F 24.8 °F 75% 30.05 in 10.0 mi SSE 11.5 mph - N/A   Clear
6:10 AM 32.0 °F 23.6 °F 24.8 °F 75% 30.05 in 10.0 mi SSE 10.4 mph - N/A   Clear
6:30 AM 32.0 °F 24.8 °F 24.8 °F 75% 30.06 in 10.0 mi SSE 8.1 mph - N/A   Clear
6:50 AM 32.0 °F 24.2 °F 24.8 °F 75% 30.06 in 10.0 mi SSE 9.2 mph - N/A   Clear
7:10 AM 32.0 °F 23.0 °F 24.8 °F 75% 30.05 in 10.0 mi SSE 11.5 mph - N/A   Clear
7:30 AM 32.0 °F 22.5 °F 24.8 °F 75% 30.05 in 10.0 mi South 12.7 mph - N/A   Clear
7:50 AM 33.8 °F 26.4 °F 24.8 °F 70% 30.07 in 10.0 mi SSE 9.2 mph - N/A   Clear
8:10 AM 35.6 °F 28.0 °F 26.6 °F 70% 30.07 in 10.0 mi SSE 10.4 mph - N/A   Clear
8:30 AM 35.6 °F 27.1 °F 26.6 °F 70% 30.06 in 10.0 mi South 12.7 mph - N/A   Clear
8:50 AM 37.4 °F 28.5 °F 26.6 °F 65% 30.06 in 10.0 mi South 15.0 mph - N/A   Clear
9:10 AM 39.2 °F 31.2 °F 28.4 °F 65% 30.06 in 10.0 mi South 13.8 mph - N/A   Clear
9:30 AM 39.2 °F 31.6 °F 28.4 °F 65% 30.06 in 10.0 mi South 12.7 mph - N/A   Clear
9:50 AM 41.0 °F 34.3 °F 30.2 °F 65% 30.06 in 10.0 mi South 11.5 mph - N/A   Clear
10:10 AM 44.6 °F 38.8 °F 32.0 °F 61% 30.05 in 10.0 mi South 11.5 mph - N/A   Clear
10:30 AM 44.6 °F 38.1 °F 32.0 °F 61% 30.05 in 10.0 mi South 13.8 mph - N/A   Clear
10:50 AM 48.2 °F - 28.4 °F 46% 30.04 in 10.0 mi SSW 19.6 mph 23.0 mph N/A   Clear
11:10 AM 50.0 °F - 28.4 °F 43% 30.04 in 10.0 mi South 19.6 mph - N/A   Clear
11:30 AM 50.0 °F - 32.0 °F 50% 30.03 in 10.0 mi SSW 13.8 mph - N/A   Clear
11:50 AM 51.8 °F - 28.4 °F 41% 30.03 in 10.0 mi South 21.9 mph 27.6 mph N/A   Clear
12:10 PM 53.6 °F - 30.2 °F 41% 30.03 in 10.0 mi South 16.1 mph 24.2 mph N/A   Clear
12:30 PM 55.4 °F - 30.2 °F 38% 30.02 in 10.0 mi South 18.4 mph - N/A   Clear
12:50 PM 55.4 °F - 32.0 °F 41% 30.02 in 10.0 mi South 20.7 mph 25.3 mph N/A   Clear
1:10 PM 57.2 °F - 32.0 °F 38% 30.00 in 10.0 mi South 15.0 mph - N/A   Clear
1:30 PM 59.0 °F - 32.0 °F 36% 30.00 in 10.0 mi SSW 17.3 mph - N/A   Clear
1:50 PM 59.0 °F - 33.8 °F 39% 29.99 in 10.0 mi South 18.4 mph - N/A   Clear
2:10 PM 62.6 °F - 33.8 °F 34% 29.98 in 10.0 mi South 17.3 mph 21.9 mph N/A   Clear
2:30 PM 62.6 °F - 35.6 °F 37% 29.97 in 10.0 mi South 16.1 mph - N/A   Clear
2:50 PM 64.4 °F - 35.6 °F 34% 29.96 in 9.0 mi South 13.8 mph - N/A   Clear
3:10 PM 64.4 °F - 35.6 °F 34% 29.96 in 10.0 mi South 19.6 mph 26.5 mph N/A   Clear
3:30 PM 64.4 °F - 35.6 °F 34% 29.96 in 10.0 mi South 17.3 mph - N/A   Clear
3:50 PM 64.4 °F - 35.6 °F 34% 29.96 in 10.0 mi South 18.4 mph - N/A   Clear
4:10 PM 64.4 °F - 37.4 °F 37% 29.95 in 10.0 mi South 15.0 mph - N/A   Clear
4:30 PM 64.4 °F - 37.4 °F 37% 29.95 in 10.0 mi South 17.3 mph - N/A   Clear
4:50 PM 64.4 °F - 37.4 °F 37% 29.94 in 10.0 mi South 13.8 mph - N/A   Clear
5:10 PM 64.4 °F - 37.4 °F 37% 29.94 in 10.0 mi South 17.3 mph - N/A   Clear
5:30 PM 62.6 °F - 37.4 °F 39% 29.95 in 10.0 mi South 13.8 mph - N/A   Clear
5:50 PM 60.8 °F - 37.4 °F 42% 29.95 in 10.0 mi South 16.1 mph - N/A   Clear
6:10 PM 57.2 °F - 37.4 °F 48% 29.96 in 10.0 mi South 12.7 mph - N/A   Clear
6:30 PM 57.2 °F - 35.6 °F 44% 29.96 in 10.0 mi SSE 11.5 mph - N/A   Clear
6:50 PM 55.4 °F - 35.6 °F 47% 29.96 in 10.0 mi SSE 12.7 mph - N/A   Clear
7:10 PM 57.2 °F - 35.6 °F 44% 29.96 in 10.0 mi SSE 12.7 mph - N/A   Clear
7:30 PM 50.0 °F - 37.4 °F 62% 29.96 in 10.0 mi SE 11.5 mph - N/A   Partly Cloudy
7:50 PM 50.0 °F - 37.4 °F 62% 29.97 in 10.0 mi SE 10.4 mph - N/A   Partly Cloudy
8:10 PM 48.2 °F - 35.6 °F 62% 29.97 in 10.0 mi SSE 13.8 mph - N/A   Clear
8:30 PM 48.2 °F - 35.6 °F 62% 29.97 in 10.0 mi SSE 12.7 mph - N/A   Clear
8:50 PM 50.0 °F - 33.8 °F 54% 29.98 in 10.0 mi SSE 11.5 mph - N/A   Clear
9:10 PM 51.8 °F - 33.8 °F 50% 29.99 in 10.0 mi ESE 6.9 mph - N/A   Clear
9:30 PM 48.2 °F - 35.6 °F 62% 30.00 in 10.0 mi East 9.2 mph - N/A   Partly Cloudy
9:50 PM 48.2 °F - 35.6 °F 62% 30.00 in 10.0 mi SE 13.8 mph - N/A   Clear
10:10 PM 46.4 °F 40.4 °F 35.6 °F 66% 30.00 in 10.0 mi SE 13.8 mph - N/A   Partly Cloudy
10:30 PM 48.2 °F - 33.8 °F 58% 30.01 in 10.0 mi SE 12.7 mph - N/A   Scattered Clouds
10:50 PM 44.6 °F 39.2 °F 35.6 °F 71% 30.00 in 10.0 mi ESE 10.4 mph - N/A   Mostly Cloudy
11:10 PM 44.6 °F 38.4 °F 33.8 °F 66% 30.00 in 10.0 mi SE 12.7 mph - N/A   Scattered Clouds
11:30 PM 44.6 °F 39.7 °F 33.8 °F 66% 30.00 in 10.0 mi SE 9.2 mph - N/A   Scattered Clouds
11:50 PM 44.6 °F 40.2 °F 33.8 °F 66% 30.01 in 10.0 mi SE 8.1 mph - N/A   Mostly Cloudy